GFSCGP_con_lsi_147.txt.gz
Lid_Strength_Index
11 13 14 13 13 14 14 14 14 13 11 12 12 12 12 12 12 13 13 13 13 13 12 12 12 12 12 12 12 12 12 11 11 11 12 12 12 10 10 9 8 8 7 6
12 14 11 12 12 13 14 14 14 13 12 13 12 12 12 13 12 12 13 13 13 13 13 12 12 12 12 12 12 12 12 12 12 12 12 12 11 11 10 9 9 8 7 6
14 12 12 12 13 13 13 14 14 14 12 12 13 14 14 13 13 13 13 13 13 14 14 13 13 13 13 13 13 13 12 12 12 12 12 12 11 11 11 11 10 8 7 6
13 11 12 13 13 12 15 12 12 13 14 16 12 16 14 14 14 14 13 14 14 14 14 14 14 14 13 13 12 12 12 12 12 12 13 13 13 14 12 11 10 9 7 6
12 12 13 14 13 12 13 11 12 12 14 14 15 15 13 14 14 13 13 14 14 14 14 14 14 14 13 12 13 12 12 12 12 13 12 12 12 12 11 11 10 10 8 7
12 10 10 10 10 10 10 11 11 12 13 17 14 14 14 13 13 14 13 14 14 14 14 14 14 13 13 13 13 12 12 12 11 12 12 11 12 12 12 12 12 12 10 10
11 10 8 9 11 9 10 12 15 16 17 17 12 14 13 13 12 12 13 13 13 14 15 15 15 14 14 13 13 12 12 11 11 12 11 12 13 13 13 13 13 13 12 12
14 15 10 9 10 11 11 12 15 20 18 16 13 15 12 13 13 12 13 13 14 15 15 15 15 15 14 13 13 12 12 12 11 11 12 12 13 13 13 13 14 13 13 12
13 14 8 8 8 8 10 12 10 13 13 18 14 13 13 13 14 14 14 14 15 15 15 15 14 14 14 13 12 12 12 12 12 12 12 13 13 14 14 14 14 13 13 12
10 13 10 8 7 7 8 8 14 14 20 21 16 15 14 14 14 14 15 15 14 16 16 15 14 15 14 13 12 12 12 13 12 12 13 13 14 14 15 15 15 14 13 13
9 10 11 9 10 11 10 12 12 12 14 19 20 16 12 12 12 13 15 15 15 15 16 16 15 14 14 13 13 13 13 14 14 13 13 14 14 15 15 16 15 14 14 14
8 11 14 11 9 7 8 10 11 16 17 15 16 16 12 12 11 12 14 14 15 16 15 15 15 14 14 14 14 14 14 14 14 14 14 15 15 15 16 16 16 16 15 15
8 12 15 13 11 9 11 11 10 11 13 16 18 16 12 12 13 12 13 13 14 15 14 15 15 16 16 15 14 15 15 15 15 15 15 16 16 16 16 16 16 15 15 15
7 10 12 16 13 11 13 12 11 11 16 16 16 14 11 13 13 13 13 14 14 15 14 14 15 15 15 15 14 15 15 15 14 15 15 16 16 16 16 16 16 16 15 16
9 13 12 11 11 11 12 12 12 13 13 15 13 14 11 10 12 12 13 15 16 15 14 14 15 14 14 14 14 14 14 14 14 15 15 16 16 16 16 16 16 16 16 16
9 13 12 14 11 12 14 12 12 12 12 12 12 13 8 11 11 13 13 15 15 14 14 15 15 15 14 15 15 14 14 14 14 15 15 15 16 16 16 16 16 16 16 16
10 11 14 15 13 13 16 13 13 12 10 11 14 11 11 12 12 13 14 13 13 14 14 14 15 15 14 14 14 14 14 14 14 15 15 14 15 16 16 16 16 16 16 16
10 12 13 15 14 19 12 10 9 11 10 9 10 11 11 12 12 11 11 12 13 13 14 14 14 14 14 13 14 14 14 14 14 14 15 14 14 15 16 16 16 16 16 16
8 11 15 16 16 14 11 11 11 12 11 9 9 12 13 13 12 13 11 11 12 13 13 13 13 14 13 13 13 14 14 14 14 15 15 15 15 15 15 17 16 15 16 16
9 9 13 14 18 19 12 9 8 9 13 10 10 11 12 12 13 11 12 12 12 12 13 13 13 13 13 13 13 14 14 15 15 14 14 14 15 15 16 16 16 15 15 15
13 13 15 15 16 14 9 9 8 14 12 10 9 10 11 12 11 11 11 12 12 12 13 13 13 13 13 13 13 14 14 15 14 14 14 13 14 15 15 15 15 15 16 16
13 14 15 14 16 17 9 10 11 9 10 9 10 10 11 11 12 12 12 13 12 13 13 13 13 13 13 12 13 14 14 13 13 13 14 14 13 13 14 15 14 15 15 16
14 11 13 12 12 10 9 9 9 8 8 10 10 10 10 12 12 12 13 12 12 12 13 13 13 13 13 13 13 14 13 13 13 13 14 14 13 13 13 14 15 14 14 15
9 9 10 11 10 10 9 9 9 8 8 9 10 10 11 12 12 12 12 12 12 13 13 13 13 14 14 13 13 13 13 13 13 14 14 13 14 14 13 13 13 14 15 15
9 9 10 11 10 10 10 9 8 9 9 10 10 11 11 12 12 12 12 12 12 13 13 13 14 14 14 14 14 13 12 13 14 14 14 14 13 14 14 13 13 14 14 14
9 10 11 12 9 9 10 8 9 9 10 10 11 12 11 11 12 12 12 12 12 13 13 13 14 14 14 14 14 13 13 13 13 14 14 14 14 13 14 14 15 14 14 14

GFSCGP_con_lsi_150.txt.gz
Lid_Strength_Index
9 9 9 8 9 9 10 11 11 9 9 11 10 9 8 8 8 8 8 8 8 9 9 9 8 8 8 8 8 8 8 8 8 8 9 9 9 8 8 7 7 7 7 7
10 11 8 9 9 10 10 10 10 8 8 10 10 10 8 9 9 8 8 8 9 10 9 9 9 9 8 8 8 8 8 8 8 9 9 9 9 9 9 8 7 7 8 7
10 10 10 10 10 10 10 11 10 11 9 9 9 11 9 9 9 8 8 8 10 10 10 10 10 9 9 9 8 9 9 8 9 10 9 9 9 9 9 9 10 9 9 8
10 9 10 10 11 10 12 9 10 11 11 13 9 15 10 9 10 10 9 9 9 10 10 10 10 9 9 9 8 8 9 9 9 10 11 11 12 12 11 11 10 9 8 8
11 11 11 11 11 10 11 10 11 11 11 12 11 13 11 9 10 9 9 9 9 10 10 10 10 10 9 9 9 8 8 9 10 10 10 11 12 12 12 12 11 10 9 9
10 8 9 9 9 8 8 10 9 9 10 14 11 11 12 9 9 9 8 9 9 10 10 10 10 10 9 8 9 8 9 10 10 10 10 12 12 12 12 12 12 11 10 10
10 9 7 7 9 7 8 9 14 15 15 15 10 11 10 9 8 8 8 9 9 10 10 10 11 10 10 10 10 10 10 10 10 10 10 10 11 11 12 12 12 12 12 12
12 13 9 8 8 9 9 9 14 18 16 15 11 13 10 8 9 8 8 9 10 10 11 12 12 12 11 11 10 10 10 10 10 10 10 10 11 11 12 12 12 12 12 12
12 12 7 6 6 7 9 11 8 12 12 15 12 11 8 9 10 9 10 10 12 12 11 12 12 12 12 11 11 10 10 10 9 10 10 11 11 12 12 12 13 13 13 12
8 12 8 7 6 6 7 7 12 12 18 18 14 12 12 10 10 11 12 12 11 12 12 12 12 13 12 12 10 10 10 11 10 9 11 11 11 12 12 12 14 13 13 13
7 9 10 8 9 9 9 10 10 11 13 17 17 14 9 11 9 11 12 11 13 12 13 13 12 13 13 12 10 10 11 12 12 11 11 12 13 13 13 14 14 14 13 13
7 9 13 10 7 6 7 9 9 14 15 14 15 15 8 9 8 8 10 11 12 12 13 13 13 13 12 12 12 12 12 12 13 13 13 13 13 13 14 14 14 13 14 14
7 10 13 11 9 8 9 8 8 9 11 15 17 15 8 9 8 8 9 10 11 12 13 13 13 14 13 13 13 13 13 13 13 13 13 13 13 13 14 14 14 14 14 14
6 9 11 14 12 9 11 9 9 10 16 14 14 14 11 9 8 8 9 10 11 12 13 13 13 13 13 13 13 13 13 13 13 12 12 14 14 13 12 13 13 13 13 15
7 12 10 10 9 9 10 10 10 11 11 15 14 13 10 8 7 7 8 10 12 13 13 13 12 12 13 13 12 12 12 12 12 13 12 12 12 12 12 12 13 12 13 13
7 12 12 14 10 9 13 13 13 11 11 11 11 11 7 6 6 7 9 11 12 12 13 12 12 12 13 13 13 13 12 12 12 12 12 13 12 12 12 12 12 12 13 13
9 10 12 14 10 11 14 13 12 10 9 10 13 9 7 8 8 8 9 11 12 12 11 12 12 12 12 12 12 13 12 12 12 12 12 12 12 12 12 13 13 13 13 12
9 10 10 14 12 19 13 8 8 9 9 8 8 7 7 7 8 8 8 10 9 10 11 11 11 11 11 11 11 12 12 12 13 12 12 12 13 13 13 12 13 13 13 13
8 10 12 15 14 11 10 8 10 10 10 7 8 7 8 9 9 9 8 8 9 10 10 10 11 11 10 10 11 11 12 12 13 13 13 12 12 13 13 13 12 13 13 14
7 8 12 13 17 16 10 8 7 7 13 8 7 7 8 8 10 7 8 8 9 9 9 10 10 10 10 10 10 11 12 12 13 13 13 13 13 13 13 13 13 12 12 13
12 12 14 14 15 12 7 7 7 14 12 7 7 6 7 7 7 7 8 9 9 9 10 9 10 10 10 10 10 11 12 13 12 12 12 13 13 13 12 12 12 12 13 13
12 13 14 13 15 17 6 8 11 8 6 6 6 6 6 8 8 8 9 11 10 10 10 10 10 10 9 9 10 11 11 11 11 11 12 12 12 13 13 12 12 12 12 13
12 9 11 10 11 7 6 7 6 6 6 6 6 6 6 8 9 9 10 10 10 10 10 10 10 10 10 9 9 11 11 11 11 11 12 12 12 12 12 12 12 11 12 12
8 6 10 10 8 7 6 6 6 6 5 6 6 6 7 8 9 9 9 10 10 10 10 10 10 11 11 10 10 10 10 11 11 11 12 12 12 12 12 11 11 12 12 12
7 7 9 9 7 8 7 6 6 6 6 6 6 6 7 7 8 9 9 10 10 10 10 10 10 10 11 10 11 10 11 11 12 12 12 12 12 12 12 12 12 12 13 13
7 8 10 10 7 7 7 6 6 6 6 6 7 8 7 7 8 8 9 10 10 11 11 10 10 10 11 11 11 11 10 11 11 12 12 12 12 12 12 12 13 14 13 14

GFSCGP_con_lsi_156.txt.gz
Lid_Strength_Index
7 9 10 9 8 8 9 10 10 9 7 8 8 8 7 5 6 7 6 6 6 6 7 7 6 6 6 6 6 6 6 6 7 7 8 8 8 7 7 7 7 7 8 8
9 11 8 8 8 9 10 11 11 10 8 8 9 9 7 6 6 6 7 7 7 7 8 8 7 6 6 6 6 7 7 7 8 8 8 8 8 8 8 9 9 9 9 9
11 9 8 9 9 10 10 11 11 11 9 8 9 11 9 7 6 5 6 6 6 6 7 8 8 7 6 7 7 7 7 8 8 8 8 9 9 9 10 10 11 10 10 10
10 8 9 10 10 10 12 9 10 11 11 14 9 15 11 9 8 6 6 6 6 7 7 7 8 7 7 7 6 7 7 8 8 8 9 10 11 12 11 11 11 11 10 11
11 10 10 11 11 10 12 10 11 11 12 13 13 13 12 8 9 7 7 6 7 7 7 7 7 7 7 6 6 6 7 8 8 8 9 10 10 10 10 11 11 11 11 11
9 7 9 10 9 9 9 10 10 10 11 15 12 12 12 10 9 7 6 7 7 7 7 7 6 6 6 6 6 6 7 8 8 8 9 10 10 11 12 12 12 12 12 12
11 10 8 8 11 9 9 11 15 16 16 16 10 11 11 8 7 7 7 7 7 7 7 7 7 7 7 7 7 7 9 9 9 9 10 10 11 11 12 12 13 13 13 12
14 14 9 7 10 10 9 10 14 18 17 15 10 14 12 8 7 6 6 6 7 7 6 7 7 8 8 8 8 9 10 10 9 10 10 11 11 11 12 12 12 12 12 12
13 13 7 8 7 8 9 11 8 12 11 14 12 10 8 8 8 8 7 7 7 7 7 7 8 9 9 8 9 10 10 10 10 10 10 11 10 11 11 11 11 12 12 12
10 13 8 7 6 6 8 7 12 12 17 18 14 13 15 12 10 10 11 10 8 7 7 8 9 9 11 10 9 10 12 12 10 10 10 11 10 11 11 12 13 13 13 13
8 10 11 8 9 10 9 10 9 10 12 17 18 15 9 10 9 10 9 9 10 8 11 9 9 11 10 12 10 10 12 14 13 10 10 11 12 11 12 12 12 13 13 14
7 9 13 10 7 6 7 9 9 14 14 13 16 17 8 9 7 8 8 7 8 9 10 12 11 11 12 11 11 11 11 12 13 13 12 10 11 13 12 12 12 12 13 14
7 10 13 12 9 8 9 8 8 9 10 14 17 16 7 7 7 6 7 7 8 9 11 12 11 13 12 12 13 13 12 11 10 12 12 12 11 13 13 13 11 11 12 14
5 9 12 16 12 10 11 10 9 10 15 15 15 13 10 8 8 7 7 6 8 9 11 12 12 13 13 12 12 13 12 11 10 11 12 13 12 11 11 12 11 11 10 13
7 12 10 9 9 9 10 10 10 11 11 15 13 11 9 7 7 7 7 6 7 9 9 11 12 12 13 13 12 11 10 11 10 11 11 11 11 11 11 11 11 11 11 11
7 12 11 13 10 10 12 11 11 10 10 10 10 10 7 6 6 6 7 6 8 8 9 10 11 12 13 12 11 10 10 10 10 11 11 11 11 11 12 11 11 12 12 12
9 11 12 15 11 11 14 12 11 9 8 9 11 9 6 7 7 7 7 6 7 8 9 10 11 11 11 10 10 10 10 9 10 10 11 11 11 11 11 12 11 12 12 13
10 10 11 15 13 19 11 7 7 8 8 7 8 7 7 7 7 6 5 6 7 8 9 10 10 10 10 10 9 9 9 9 10 10 11 10 11 11 11 11 12 12 12 12
7 10 14 16 16 12 10 8 9 10 11 8 7 7 7 6 6 7 5 5 7 8 8 9 9 9 9 10 9 9 9 10 10 11 11 11 11 12 12 12 12 12 13 13
7 8 12 14 17 18 10 9 7 6 13 7 6 7 8 7 11 9 6 5 6 6 8 9 9 9 9 9 9 9 10 10 11 11 11 11 11 12 12 12 12 12 12 12
12 12 15 15 15 12 7 8 6 14 13 7 6 6 6 8 8 6 6 6 6 7 8 9 9 10 10 9 9 10 10 11 10 10 10 10 11 11 11 11 11 11 11 11
13 14 14 13 15 17 6 7 11 8 6 5 6 5 6 6 5 6 7 8 8 8 9 9 10 10 9 9 9 10 11 10 9 10 10 11 11 11 11 11 11 11 11 11
14 11 12 10 11 8 6 6 5 5 5 5 5 5 5 6 6 7 8 8 8 8 9 9 10 10 9 9 9 10 10 9 9 10 10 11 11 11 11 11 11 11 11 12
8 7 11 10 8 8 7 5 4 4 5 4 4 5 5 6 6 8 8 8 8 9 9 9 9 10 10 9 9 9 9 9 9 10 10 11 11 11 11 11 12 13 14 13
9 8 10 10 7 6 6 5 4 4 4 5 5 5 5 5 6 7 8 8 8 9 9 9 10 10 10 9 9 9 9 9 10 10 10 11 12 11 13 14 14 14 15 15
7 8 10 11 7 7 7 5 4 5 5 5 5 6 5 5 6 7 7 7 8 9 9 9 9 9 10 9 9 9 9 9 9 10 11 11 11 11 12 14 15 14 14 14

GFSCGP_con_lsi_159.txt.gz
Lid_Strength_Index
10 14 15 13 12 11 12 13 14 12 10 11 12 12 11 9 10 10 10 10 10 11 10 9 8 8 9 9 8 9 9 9 10 10 11 11 11 10 11 11 11 11 11 11
12 14 11 9 10 11 12 13 14 12 10 10 12 13 11 9 9 9 9 9 11 11 10 9 9 9 9 9 9 9 10 10 10 10 10 11 11 11 11 11 12 11 12 11
13 11 9 10 11 12 12 13 14 13 12 12 12 13 12 9 9 7 7 8 10 11 11 9 8 9 9 10 10 10 10 10 10 10 10 11 11 11 12 12 12 12 11 11
13 10 10 12 12 12 14 11 11 12 14 17 12 18 14 11 9 8 7 9 10 10 9 9 9 10 10 10 9 9 9 10 9 10 11 12 12 13 12 12 12 12 11 11
13 12 11 12 11 9 12 10 12 12 14 15 15 15 16 11 11 10 10 9 10 10 10 10 10 10 10 9 9 9 9 9 9 10 11 11 12 11 11 12 12 12 12 11
11 9 11 11 9 9 9 11 12 12 13 18 13 13 14 12 10 9 9 9 10 10 10 9 9 9 10 10 9 10 10 10 10 10 11 12 13 13 13 13 13 13 12 12
12 12 10 9 12 11 11 13 18 18 18 18 12 13 14 10 9 8 9 10 10 10 10 11 11 11 11 11 10 11 11 11 11 11 12 13 13 13 14 14 14 14 13 13
16 17 12 9 11 12 12 12 16 20 19 17 12 15 15 9 8 8 8 9 9 10 10 11 12 12 11 10 11 12 11 11 11 12 13 13 13 14 13 14 14 13 13 12
15 15 10 9 9 10 12 14 9 13 13 17 14 13 10 8 9 9 9 9 10 10 11 11 11 11 11 11 12 12 12 12 11 12 13 13 13 13 14 14 14 14 14 13
12 16 10 9 8 8 10 8 13 14 18 20 16 15 16 12 11 9 11 11 9 9 10 11 11 12 12 12 12 13 13 13 12 13 14 14 14 13 13 13 14 15 15 14
11 13 14 10 10 11 10 11 11 11 14 20 20 18 11 11 10 10 10 10 11 11 12 11 11 12 12 14 12 14 14 15 14 12 13 14 14 13 13 13 14 14 15 14
10 12 17 12 8 7 8 10 11 16 16 15 17 16 9 9 8 8 8 9 9 11 12 13 14 13 14 13 12 12 13 13 14 15 13 12 13 15 13 13 13 13 15 14
10 13 16 15 11 9 10 9 9 10 12 16 20 17 9 8 8 7 8 8 9 10 12 14 14 15 16 14 14 14 12 12 13 13 13 13 12 15 17 15 13 14 16 17
8 12 13 17 14 11 13 11 10 11 17 16 16 15 11 9 9 8 8 8 10 10 11 13 15 15 17 14 13 13 12 12 12 12 12 14 14 12 12 14 14 14 14 17
9 13 11 11 10 10 11 11 11 12 12 15 13 13 11 9 8 9 7 8 9 11 12 13 13 13 14 13 13 13 12 12 11 11 11 11 12 12 12 12 13 13 14 14
8 13 12 14 11 10 12 11 11 11 11 11 11 11 8 7 7 8 7 8 10 10 11 11 12 13 13 13 13 12 11 11 10 11 11 11 11 11 12 13 13 14 14 15
10 12 14 16 12 12 15 13 12 10 9 10 13 11 9 9 8 8 8 8 9 9 10 11 12 13 13 12 12 12 11 10 11 11 10 10 10 11 12 12 13 14 15 15
11 11 12 16 14 20 13 8 8 9 9 9 9 9 9 8 8 7 7 8 8 9 10 11 12 13 12 12 11 11 11 11 11 11 11 10 11 11 12 12 13 14 14 15
8 11 14 16 17 13 11 9 10 11 12 9 9 9 8 7 8 8 7 7 9 9 11 12 12 12 12 11 11 12 12 12 12 12 12 11 11 12 12 13 13 13 14 14
9 9 13 15 18 20 12 9 7 8 15 8 8 8 8 8 13 12 8 8 10 10 10 11 11 12 12 12 12 12 13 13 13 13 12 11 12 12 13 13 13 13 13 12
13 12 15 15 16 14 8 8 6 15 14 8 7 7 8 9 9 9 8 9 9 10 11 10 11 12 12 12 12 13 13 14 12 12 11 11 12 12 12 13 13 13 13 13
13 15 16 14 17 18 8 8 12 9 8 7 7 7 7 9 9 9 9 10 9 10 11 11 11 12 12 12 11 13 14 12 11 11 11 12 12 11 12 14 13 13 13 15
14 12 14 12 13 8 7 8 6 6 7 7 7 6 7 8 9 9 9 9 9 10 11 11 12 11 12 12 11 12 12 11 11 12 12 12 12 12 12 13 14 14 14 15
10 8 11 11 9 8 7 6 5 6 6 6 6 7 7 9 9 9 9 9 10 11 11 11 11 12 12 11 11 11 11 11 11 12 12 13 13 13 13 13 15 16 17 16
9 8 11 11 9 8 7 6 6 5 5 6 6 6 7 8 9 8 9 9 10 11 11 11 11 12 12 11 11 11 11 11 11 12 12 13 13 14 15 15 15 16 18 16
8 10 12 13 8 8 8 6 5 6 6 6 7 7 7 7 8 8 9 9 10 10 11 11 11 12 12 12 12 11 11 11 12 13 13 13 13 14 15 15 16 13 15 13

GFSCGP_con_lsi_162.txt.gz
Lid_Strength_Index
11 14 15 14 13 12 13 14 15 14 11 12 13 14 13 11 11 11 12 12 11 11 10 9 9 9 9 10 10 10 10 11 11 11 12 12 12 12 12 12 12 12 12 12
13 15 12 11 11 12 13 15 15 14 11 12 13 14 12 11 10 10 10 11 11 11 10 9 10 10 10 10 10 10 11 11 11 11 12 12 12 12 12 12 12 12 12 12
15 12 10 11 12 13 14 14 15 15 13 13 13 15 14 11 9 9 9 10 11 11 11 10 10 10 11 11 10 10 10 10 10 11 11 11 11 12 13 13 13 12 12 12
13 11 11 12 13 13 15 12 12 13 15 18 13 19 15 12 12 11 10 11 12 11 10 10 10 11 11 11 10 10 10 10 11 10 11 12 13 13 13 13 13 12 11 12
14 13 13 13 12 11 14 11 12 12 15 16 16 17 18 13 13 13 12 11 10 10 10 10 10 10 10 10 11 12 11 11 11 11 11 12 13 13 13 13 13 13 12 12
12 10 12 12 10 11 10 12 12 13 14 19 15 16 18 14 11 12 11 11 11 11 10 10 11 10 11 12 13 12 12 12 11 11 12 13 13 14 14 15 15 14 13 13
13 13 11 9 12 11 11 14 19 19 19 20 13 15 15 11 10 10 11 11 10 10 10 11 11 12 12 13 13 12 12 12 12 12 13 13 14 14 15 15 15 15 14 14
16 17 12 10 12 13 13 13 17 19 19 17 13 16 15 9 9 9 10 10 10 10 11 11 11 12 12 12 13 12 12 12 12 13 13 14 14 15 15 15 15 15 14 14
15 15 11 10 10 10 12 14 10 14 14 17 16 13 10 9 9 10 10 10 10 10 11 11 11 11 12 13 13 12 12 12 13 13 14 14 14 15 15 15 16 15 15 14
13 17 12 10 10 10 11 10 15 14 17 19 17 16 16 12 11 10 11 11 10 11 11 12 11 12 12 13 13 13 12 13 13 14 14 14 14 14 14 14 15 15 15 15
12 14 14 11 12 11 10 13 12 12 14 18 21 18 11 11 10 10 10 10 10 10 12 12 12 12 13 13 14 14 14 16 14 13 13 13 14 14 13 13 14 15 15 15
10 13 17 14 10 8 8 11 11 16 16 15 17 16 9 9 8 8 9 9 11 11 12 13 13 13 14 13 14 14 14 13 15 14 12 13 14 15 13 13 13 15 16 15
10 15 17 16 13 10 11 10 10 11 13 16 20 18 9 8 8 8 8 9 9 11 13 15 15 15 15 14 14 12 13 13 12 13 14 13 14 16 17 13 14 15 16 17
9 13 15 18 15 12 13 12 11 11 18 16 16 14 11 9 9 8 8 9 9 11 12 14 16 16 17 15 12 12 12 12 13 13 13 17 14 12 13 14 13 15 15 17
11 15 14 12 11 11 11 12 11 13 13 15 15 13 11 9 8 8 7 9 9 10 11 13 15 15 15 14 12 12 12 12 12 13 12 13 12 12 12 13 14 14 14 15
10 14 12 19 11 11 13 12 12 11 11 12 11 12 8 8 8 8 8 9 10 10 11 12 13 13 13 13 13 13 12 12 11 11 11 11 11 12 13 13 14 14 14 15
10 12 14 16 12 13 16 13 12 11 10 10 13 10 9 9 8 8 8 8 9 10 11 12 12 13 13 13 12 12 12 11 11 12 11 12 12 13 13 13 14 14 15 14
11 12 13 16 14 20 13 8 9 10 10 9 9 10 9 9 8 8 8 9 9 10 11 11 12 13 13 13 11 11 11 12 13 13 12 12 12 12 13 13 14 14 14 15
8 11 15 17 17 14 12 10 11 11 12 9 9 9 8 8 9 10 8 8 9 9 10 11 12 13 12 11 11 12 13 13 13 13 13 13 12 13 13 13 14 14 14 14
9 9 13 16 18 20 13 9 7 8 15 9 8 9 9 9 13 12 9 9 10 9 10 11 11 12 12 13 12 13 14 14 14 14 13 13 13 13 13 13 13 13 13 13
13 14 15 15 16 14 9 8 7 15 14 8 7 8 9 10 10 9 10 11 10 10 11 11 11 12 12 12 13 14 14 15 13 13 13 13 13 13 13 13 13 13 13 13
13 15 16 14 17 18 7 9 12 10 8 7 8 7 8 9 9 10 12 12 11 11 11 11 12 13 13 12 13 14 15 13 13 13 13 13 13 12 12 14 13 13 14 15
14 12 14 13 13 8 7 8 7 6 7 8 7 7 8 9 10 11 12 11 11 11 11 11 12 13 13 13 13 14 14 13 13 13 13 14 13 12 13 13 14 15 14 15
9 8 11 11 10 9 7 6 6 6 7 6 6 7 8 9 10 10 11 10 10 11 11 12 12 13 13 12 12 12 12 12 13 13 13 14 14 14 14 14 14 15 16 16
9 9 11 11 9 8 7 6 6 5 6 6 6 7 8 8 9 10 10 10 10 11 11 11 12 12 13 12 12 12 12 12 13 13 13 13 14 14 15 15 16 15 18 15
8 10 12 13 8 8 8 6 5 6 7 6 7 8 7 8 9 9 10 10 10 11 11 11 12 12 12 13 13 12 12 12 12 13 14 14 14 15 15 15 17 13 15 12

GFSCGP_con_lsi_165.txt.gz
Lid_Strength_Index
12 14 16 15 14 14 14 16 16 16 13 14 15 15 13 12 12 12 13 13 13 12 11 11 10 10 11 11 11 11 12 12 12 13 13 13 14 13 13 12 12 12 12 13
14 15 12 12 12 13 14 15 16 14 13 13 15 15 13 13 12 11 12 12 12 12 11 10 10 11 11 11 11 12 12 12 12 12 12 12 13 13 13 12 12 12 12 13
15 13 11 12 13 14 15 15 16 15 14 14 15 16 15 12 11 11 11 11 11 11 11 11 11 12 12 12 12 11 11 12 11 12 12 12 12 12 12 13 13 12 12 13
13 11 12 13 14 13 16 13 13 14 16 19 15 20 16 14 13 12 12 12 11 11 11 11 11 11 12 12 11 11 11 12 12 12 13 13 13 14 14 13 13 12 12 12
14 13 13 14 13 12 14 12 13 14 17 18 17 18 19 12 12 12 13 12 12 12 11 11 11 11 11 12 12 12 12 12 13 13 13 14 14 14 14 14 14 13 12 13
13 11 12 12 11 12 11 13 13 14 16 20 16 17 19 14 12 13 12 11 10 10 10 10 10 10 12 12 12 12 13 13 13 13 13 14 15 15 15 15 15 15 14 14
14 13 12 11 13 11 12 14 19 19 19 20 14 16 16 12 11 12 12 11 10 10 11 11 11 12 13 13 13 12 13 13 13 14 14 15 15 16 16 16 16 15 15 16
16 17 13 11 12 13 13 13 17 19 19 18 14 18 15 11 11 11 11 10 10 10 10 11 11 12 13 12 13 12 13 13 14 14 15 15 15 15 16 16 16 16 16 15
15 15 11 11 11 11 12 14 11 14 15 18 17 14 11 10 10 11 10 10 11 10 10 10 11 12 13 13 13 13 13 13 13 14 14 14 14 15 15 16 16 16 16 14
13 16 12 11 11 11 11 10 14 14 18 20 18 17 17 12 11 11 12 11 10 10 11 11 12 13 13 13 13 13 13 14 14 13 14 14 14 14 14 15 16 16 15 14
13 14 14 12 13 12 11 12 12 13 15 18 21 19 13 11 10 11 11 10 12 10 12 12 12 13 14 15 14 14 14 16 15 14 14 14 13 13 14 15 16 15 15 15
11 14 17 14 11 9 10 12 12 17 16 15 18 19 11 10 8 9 10 9 11 12 13 14 13 13 15 15 16 15 14 14 15 15 13 13 14 15 14 16 15 16 16 15
11 15 18 17 15 12 12 11 11 12 14 16 20 18 9 9 9 8 8 9 10 12 13 14 14 15 14 15 16 16 15 14 13 13 14 13 14 18 15 17 17 17 17 18
9 14 15 19 16 14 14 12 12 12 18 16 16 14 12 10 9 9 8 7 10 11 13 14 15 16 16 15 14 14 13 12 12 13 14 16 15 13 14 15 15 16 15 17
11 15 14 14 13 13 14 13 12 13 12 15 15 14 12 10 10 10 8 8 9 10 13 14 15 15 15 15 13 12 11 12 13 13 13 13 13 13 14 14 14 14 14 14
11 15 15 21 14 13 15 14 12 12 12 12 12 13 9 8 8 9 9 9 9 9 11 13 14 14 14 14 13 12 11 12 12 12 13 13 13 14 14 15 15 15 15 15
11 13 15 17 13 13 16 15 12 11 11 11 14 11 9 10 9 9 8 9 9 8 10 12 13 13 13 13 13 13 12 12 11 12 12 13 14 14 15 15 15 15 15 15
11 12 13 16 14 21 14 10 9 11 10 10 10 9 9 8 9 8 8 9 10 9 10 11 12 13 13 13 13 13 11 12 13 13 13 13 14 14 14 15 15 15 15 15
8 11 15 16 16 15 13 11 11 12 12 9 10 9 9 9 9 10 8 9 10 10 10 11 12 13 13 12 11 11 12 13 13 13 14 14 14 14 14 15 15 15 15 15
9 10 13 16 18 20 13 10 8 9 15 9 9 9 9 9 14 12 9 9 10 10 10 12 12 12 12 12 12 13 14 14 14 14 13 13 13 14 14 14 14 14 14 14
13 14 15 15 16 14 9 8 8 16 14 9 8 8 9 11 10 10 10 11 11 11 11 11 12 12 13 12 13 14 15 15 14 13 13 13 13 13 13 14 13 13 14 15
14 15 15 14 17 18 8 9 12 10 9 8 8 8 9 9 10 10 12 13 12 12 11 11 12 13 13 13 13 15 15 14 14 14 13 14 13 13 13 14 14 13 15 18
14 12 14 13 13 8 7 8 7 7 7 7 8 8 8 9 10 11 12 13 13 12 12 12 12 13 13 13 13 15 15 14 14 14 14 14 13 13 13 14 15 14 14 16
10 8 12 11 10 9 7 7 6 6 7 6 7 7 8 9 10 11 12 12 13 13 12 12 12 13 13 13 13 13 13 14 14 14 14 14 14 14 14 14 14 15 16 16
9 9 10 11 9 8 7 6 6 6 5 6 6 7 8 9 10 11 11 12 12 12 11 11 12 13 13 13 13 13 13 13 14 14 14 14 15 15 16 16 17 15 18 16
9 11 12 13 8 8 8 6 5 6 6 7 7 8 8 8 9 10 11 11 12 12 11 11 12 12 12 12 13 13 13 13 13 14 14 15 15 15 16 17 18 14 15 12

GFSCGP_con_lsi_168.txt.gz
Lid_Strength_Index
13 14 16 15 14 15 15 16 17 16 14 15 15 16 14 13 13 14 14 13 13 12 12 11 11 12 12 12 12 12 12 12 13 13 13 14 14 13 13 13 12 12 13 13
15 16 12 12 13 14 15 16 17 15 14 14 16 16 14 14 14 14 14 14 13 13 12 12 12 12 12 12 12 12 13 13 13 13 13 12 13 13 13 13 12 12 13 13
16 14 12 13 14 14 15 16 16 15 15 16 16 17 16 14 13 12 13 12 13 13 13 12 12 13 13 12 12 13 13 13 12 12 13 13 13 13 14 14 14 13 12 13
14 12 13 14 15 14 17 13 14 15 17 19 16 21 17 15 13 13 14 14 13 12 11 11 12 13 13 13 12 12 12 12 12 13 13 15 15 16 15 14 14 13 12 13
14 14 14 14 13 13 15 13 14 15 17 18 18 19 18 14 14 14 14 13 12 12 12 12 12 12 13 12 13 12 12 12 13 14 13 15 15 15 15 15 15 14 13 14
13 12 12 12 11 12 11 13 14 15 17 21 17 17 20 15 13 13 13 12 12 12 12 12 11 11 12 12 12 12 13 13 14 14 14 15 16 16 16 15 15 15 15 15
14 14 12 11 14 12 13 15 19 20 20 20 15 18 17 13 11 11 13 12 11 10 11 11 12 12 12 13 13 13 14 14 14 15 16 16 17 16 16 16 15 15 16 16
16 17 13 11 12 14 14 14 17 20 20 19 16 18 17 12 11 11 11 11 10 10 10 10 11 11 12 12 13 13 13 14 14 15 16 16 16 16 16 16 15 15 15 15
16 15 12 11 11 11 13 15 12 15 16 18 18 15 12 11 11 12 11 11 11 10 11 10 12 12 12 12 13 13 13 14 14 15 15 15 15 15 16 16 15 15 15 15
12 16 13 11 11 11 12 11 16 15 20 20 18 17 16 13 12 11 12 12 11 11 11 11 12 13 13 13 12 13 13 14 14 15 15 15 15 15 15 15 16 15 15 15
13 15 15 13 14 14 13 14 13 13 15 19 20 18 13 12 10 11 11 11 12 11 12 12 12 13 13 14 13 14 14 16 15 14 14 14 14 14 15 16 16 16 15 15
12 14 17 15 12 10 11 13 12 16 17 15 19 17 12 10 10 10 10 10 11 11 12 14 13 14 15 14 14 15 15 15 17 16 14 14 14 15 15 17 17 16 16 15
12 15 18 17 15 13 13 12 12 13 14 17 21 18 11 9 9 8 9 9 9 11 13 13 13 15 16 16 16 15 14 13 14 14 15 14 14 17 20 20 18 17 17 18
9 14 15 19 16 14 14 13 13 14 19 18 17 15 13 11 10 9 9 8 9 10 11 13 14 15 16 16 16 14 13 12 13 13 14 17 16 15 15 19 17 17 16 17
10 15 14 14 13 13 13 14 14 15 14 16 16 15 13 12 10 9 9 9 9 10 12 12 13 14 15 15 14 13 12 12 12 13 14 14 14 14 14 15 16 15 15 15
10 14 14 20 13 13 15 14 15 13 12 12 13 14 9 9 10 10 9 9 9 10 11 12 12 12 13 13 12 12 12 12 12 14 14 14 14 14 15 16 16 16 16 16
11 12 14 16 14 14 16 16 13 12 11 11 14 12 10 11 10 10 9 9 9 9 11 13 13 13 13 12 11 12 12 11 12 13 13 14 14 15 15 16 16 16 16 16
11 12 12 16 14 21 15 11 10 12 11 11 11 10 9 9 9 8 7 9 10 9 10 11 12 13 12 11 12 12 12 12 12 13 14 14 14 15 15 16 16 16 16 16
8 11 14 16 16 15 13 11 12 13 13 10 11 10 10 9 9 10 8 9 10 9 9 11 11 12 12 13 13 13 12 12 13 13 14 14 14 15 15 16 16 16 16 16
9 9 13 15 18 20 13 9 8 9 14 10 10 10 9 10 14 13 10 10 11 10 11 12 13 12 12 13 12 12 13 14 14 14 14 14 14 15 16 15 15 15 15 15
13 13 15 15 17 14 10 8 8 15 15 10 9 9 10 11 10 11 10 11 11 11 12 12 12 13 13 12 12 13 14 15 14 13 14 14 14 14 15 15 15 15 16 17
13 15 15 15 17 18 8 8 13 11 8 8 8 8 8 9 10 11 11 12 12 12 12 13 13 13 13 12 12 14 14 14 13 14 14 14 14 14 14 15 15 14 18 20
14 11 14 13 13 8 8 8 7 7 7 7 8 7 8 9 10 11 12 12 12 12 14 13 13 13 13 13 13 14 15 14 14 14 14 14 14 14 14 15 15 15 17 18
10 8 12 12 10 9 7 7 6 6 7 6 7 7 8 9 10 11 12 13 13 14 14 13 13 13 14 13 13 13 13 13 13 14 15 14 15 15 15 14 14 15 16 17
9 9 11 12 9 8 7 6 6 6 5 6 6 7 8 9 10 11 12 12 13 13 13 13 13 13 13 13 13 13 13 13 14 14 14 14 14 14 15 15 16 15 18 15
9 10 13 13 9 8 8 6 5 6 6 5 7 9 9 9 10 11 12 12 12 13 13 14 13 13 13 13 13 13 13 13 14 14 14 14 14 15 15 16 18 13 15 13

GFSCGP_con_lsi_171.txt.gz
Lid_Strength_Index
10 11 13 12 12 12 13 14 14 12 11 12 12 12 11 10 10 10 10 10 9 9 8 7 8 8 9 8 9 9 9 9 9 9 9 10 11 10 10 10 10 10 11 10
12 13 11 11 12 12 13 14 14 12 12 12 12 12 11 11 11 10 10 10 10 10 9 8 8 8 8 9 9 9 9 9 9 8 9 10 10 10 10 10 11 11 11 11
13 12 11 11 12 13 13 14 14 14 12 12 13 13 12 12 11 11 10 9 9 9 9 9 9 9 9 9 9 9 9 9 9 9 10 10 10 10 11 11 11 12 12 11
13 11 12 12 13 12 15 12 12 13 13 15 13 16 13 12 11 12 11 10 10 9 9 9 10 9 9 9 10 10 10 10 10 10 10 11 12 12 12 12 11 12 12 12
13 12 12 12 12 11 13 11 12 12 13 14 14 15 14 12 11 11 11 11 10 9 9 9 9 9 10 10 11 11 11 11 11 11 12 12 13 13 12 12 12 12 12 12
11 10 10 10 10 10 10 12 12 12 13 17 14 14 15 13 11 10 11 10 10 10 9 9 9 9 10 10 10 10 11 12 12 13 13 13 13 13 12 12 13 13 12 12
12 11 10 9 11 10 10 12 16 17 16 17 14 15 13 12 9 9 9 10 9 9 9 9 9 9 10 10 10 11 12 13 13 14 13 13 13 13 13 13 13 13 13 13
14 14 11 9 10 11 11 11 15 19 18 16 13 15 12 9 9 9 8 8 8 8 8 8 8 9 9 9 9 10 11 12 14 14 13 13 12 12 13 13 13 13 12 13
13 13 9 10 9 9 11 12 10 13 14 15 13 12 10 9 9 9 9 9 9 8 7 7 8 8 8 9 9 10 11 12 12 12 12 12 12 13 13 13 12 12 12 13
10 13 11 10 9 9 9 9 13 12 17 18 15 14 13 10 9 8 10 10 8 8 7 7 8 8 8 8 8 9 9 11 12 12 12 12 13 12 12 12 13 13 13 13
10 11 12 10 11 11 11 12 11 11 13 16 17 15 10 9 8 9 8 8 11 8 10 8 8 8 8 10 9 9 10 12 11 11 11 12 12 12 12 12 12 12 13 13
10 12 14 12 10 9 9 11 11 14 15 14 15 15 9 8 8 7 7 7 8 8 9 11 9 10 11 10 10 10 11 11 12 11 11 11 12 13 13 13 13 13 12 12
9 12 15 14 12 10 11 11 10 11 12 14 16 14 9 8 8 7 7 6 6 7 8 10 10 12 12 11 12 11 12 11 11 11 11 11 13 14 14 14 14 13 13 13
8 11 13 15 14 12 13 12 11 11 14 14 14 13 10 9 9 7 6 6 6 6 8 9 10 12 12 12 11 12 12 11 11 11 11 13 13 13 14 14 13 13 12 13
9 13 12 12 12 12 12 12 12 13 12 14 14 13 11 10 9 8 7 6 7 6 7 8 9 10 11 11 10 11 11 11 11 11 11 11 12 13 13 13 13 12 12 12
9 13 12 16 12 12 13 12 12 12 12 12 12 13 8 7 7 7 8 7 7 7 7 8 9 9 10 11 11 11 11 12 11 11 11 11 12 12 13 13 13 13 13 13
10 11 13 15 12 12 15 14 12 11 11 11 14 10 8 8 8 7 7 6 7 7 7 9 9 10 10 11 11 12 12 11 11 11 12 12 12 13 13 13 13 13 13 13
11 11 12 15 13 19 12 10 10 11 10 9 10 9 8 7 6 6 6 6 6 6 8 9 10 10 10 10 11 11 11 11 11 11 12 12 12 13 14 13 14 13 13 13
8 11 14 15 15 13 12 10 11 11 11 8 9 8 8 7 7 7 6 6 6 6 7 9 10 10 9 9 10 10 11 11 11 11 11 12 12 13 14 14 14 13 13 14
8 9 13 14 17 18 12 8 7 8 13 8 8 8 8 7 10 8 6 7 7 7 7 9 10 10 10 11 10 10 11 10 11 11 11 12 12 13 14 14 13 13 14 14
13 13 15 14 15 13 8 7 7 14 12 7 7 7 7 8 7 7 7 8 8 8 9 9 10 11 11 10 9 10 10 10 10 10 11 12 12 13 13 13 13 13 13 14
12 14 14 14 16 16 7 8 11 8 7 6 6 6 6 6 7 8 8 9 9 10 10 10 11 11 10 9 10 11 11 10 10 10 11 12 12 13 13 13 13 13 14 16
13 10 12 12 12 7 6 7 6 5 7 6 6 5 5 6 7 8 9 9 10 10 11 10 11 11 10 9 10 11 10 10 10 11 11 12 12 12 12 12 13 13 14 14
9 8 11 11 9 8 7 6 5 6 6 5 5 5 5 6 7 9 9 10 10 11 11 11 11 12 11 10 10 10 10 10 11 11 11 12 12 12 12 12 12 12 13 13
9 8 10 11 9 7 6 6 5 5 5 5 4 5 5 6 7 9 10 10 10 11 12 11 11 12 12 10 10 10 10 10 11 11 11 12 12 12 12 11 11 11 11 11
8 9 11 12 7 7 7 6 4 5 5 5 5 6 6 6 8 9 9 10 10 11 11 12 12 12 12 11 11 10 10 10 11 12 12 12 12 12 12 12 12 12 12 12

GFSCGP_con_lsi_174.txt.gz
Lid_Strength_Index
8 9 10 9 9 10 11 11 12 10 8 10 10 9 8 7 7 6 5 5 5 4 4 5 5 5 5 4 4 4 5 5 5 5 6 6 7 7 7 7 8 8 7 7
10 11 8 9 9 10 11 12 11 10 9 10 10 10 8 7 8 7 6 5 5 5 6 6 5 5 5 5 5 5 5 6 5 5 6 6 6 7 7 7 8 8 8 8
10 9 9 10 10 11 11 12 11 12 10 9 10 11 9 9 8 8 7 6 5 5 6 6 6 6 6 6 6 6 6 6 6 6 7 7 7 7 7 8 8 9 9 9
10 9 10 10 11 10 12 10 10 11 12 13 10 14 10 9 9 8 8 6 6 5 5 5 6 6 6 6 6 6 6 6 6 7 7 8 7 8 9 9 9 10 10 9
11 10 10 10 10 9 10 9 10 10 11 11 11 13 10 10 10 8 7 6 6 5 5 5 6 6 6 6 7 7 8 8 9 9 9 9 9 9 9 9 10 10 9 9
9 8 9 8 8 8 8 9 9 9 10 14 11 12 11 10 9 8 7 6 6 5 5 5 5 5 6 7 7 7 8 9 9 10 10 10 10 10 9 9 9 9 9 9
10 9 8 7 9 7 8 9 13 14 14 14 11 12 10 9 7 6 6 5 5 5 5 5 5 5 6 6 6 7 8 9 10 10 11 10 10 10 10 9 9 9 9 9
11 12 9 7 8 9 9 9 13 16 15 14 11 14 10 7 6 5 5 5 4 5 5 4 4 5 5 6 6 7 8 8 9 9 9 9 9 9 9 9 9 9 10 10
11 11 8 8 7 7 9 10 8 11 11 13 12 10 7 7 7 7 6 5 5 4 4 4 4 4 5 5 5 5 7 8 9 10 9 9 9 9 9 9 9 9 10 10
8 11 8 8 7 7 8 7 11 11 16 17 13 12 11 9 8 6 8 8 5 4 4 4 4 4 4 4 5 5 6 8 8 8 8 9 9 9 9 9 9 10 10 10
7 9 10 9 9 10 9 10 9 9 11 15 16 13 8 8 7 7 6 6 8 4 5 4 4 4 4 6 5 5 6 9 8 8 8 9 9 9 9 9 9 9 10 10
8 9 12 10 8 8 7 9 9 12 13 11 12 15 6 6 6 6 6 5 5 5 5 9 4 4 7 6 5 6 6 9 10 8 8 8 9 9 9 10 10 10 10 11
8 10 13 12 9 8 10 9 8 9 10 13 16 14 6 6 6 5 5 5 5 4 4 7 5 7 9 6 7 6 7 8 9 9 9 9 10 11 11 12 11 11 11 11
7 10 11 13 11 10 11 10 9 9 13 12 12 11 9 7 7 6 6 5 5 4 4 5 6 7 9 8 7 7 8 8 9 9 9 11 10 10 11 12 11 11 10 12
8 12 10 10 10 10 11 11 10 11 11 12 12 11 9 8 7 7 6 6 6 5 5 4 5 6 8 8 7 7 7 8 8 9 9 10 10 10 11 11 11 9 10 11
7 12 11 13 11 11 12 11 10 11 11 11 10 11 7 7 6 6 6 5 5 5 4 4 3 4 6 6 6 6 7 8 8 9 10 9 9 10 11 11 10 10 10 10
9 11 12 14 10 10 13 12 10 10 9 9 12 9 7 7 7 6 5 5 5 4 4 4 3 4 5 5 5 6 7 7 9 9 9 9 10 11 11 10 10 11 10 10
9 10 12 15 12 19 10 7 8 9 8 8 8 8 7 6 5 5 4 4 4 4 4 4 4 5 5 5 5 6 8 9 10 10 10 10 10 11 11 11 10 10 10 10
6 9 13 16 14 11 10 8 8 9 9 7 7 7 6 6 5 6 4 4 4 4 4 4 5 5 5 6 7 7 9 9 10 10 9 10 10 10 11 11 11 10 11 11
7 8 13 15 17 17 10 7 6 7 12 7 7 7 7 6 10 8 5 4 4 4 4 5 6 5 6 7 8 9 10 10 10 9 9 10 9 10 11 10 11 11 11 11
12 13 14 14 14 11 8 6 6 13 11 7 6 6 6 8 6 5 4 4 4 4 5 5 6 6 6 7 9 10 10 10 8 7 8 9 9 10 10 10 10 11 11 12
12 13 13 12 14 15 6 7 10 7 5 5 5 5 6 5 5 5 5 5 5 5 6 6 7 7 7 7 9 10 10 7 7 8 9 9 9 10 10 10 10 11 11 13
11 9 11 11 10 6 5 6 4 4 5 5 6 5 5 5 5 4 5 5 5 6 7 7 7 8 8 7 7 8 7 7 7 8 9 9 9 10 10 10 11 11 11 11
7 6 9 9 7 6 5 4 4 4 5 5 5 5 5 5 4 4 5 5 6 6 7 7 8 8 8 8 7 6 7 7 8 8 9 9 10 10 10 10 10 10 10 10
7 7 8 9 7 6 6 5 4 4 4 4 4 4 5 5 4 4 5 6 6 6 7 7 8 8 8 8 9 7 7 7 8 8 9 9 9 10 10 10 9 10 9 9
6 8 9 11 6 7 6 4 4 5 5 4 4 4 5 4 4 5 5 5 6 7 7 8 8 8 9 9 9 8 7 7 8 9 9 9 9 9 10 10 10 12 11 11

GFSCGP_con_lsi_180.txt.gz
Lid_Strength_Index
6 9 10 8 7 8 9 10 11 9 8 8 8 8 7 6 6 6 6 5 5 5 3 2 2 3 4 5 6 6 5 5 5 6 6 6 7 7 7 7 7 7 7 7
8 10 7 7 7 8 9 10 11 9 8 8 9 9 8 7 7 6 6 5 5 5 4 3 3 3 4 4 5 5 5 5 4 4 5 6 6 7 7 8 8 8 8 8
9 8 6 8 9 10 10 11 11 10 9 8 9 11 9 7 7 6 5 5 4 5 5 4 4 4 4 4 4 5 5 4 4 5 6 7 7 7 8 8 9 9 8 8
8 7 8 9 10 9 12 9 9 10 10 13 8 14 9 8 7 6 6 5 5 5 4 4 4 4 4 4 4 4 4 5 5 5 6 7 8 8 8 9 9 9 8 9
10 8 9 10 9 8 10 8 9 9 10 11 11 12 11 8 8 7 6 6 5 5 4 5 5 4 3 4 4 4 5 5 5 5 5 6 8 8 9 9 9 9 9 9
9 7 8 8 8 7 7 8 9 9 10 14 11 11 12 10 8 7 7 6 5 4 4 4 3 2 3 3 4 4 5 6 6 7 7 7 8 9 9 9 9 10 9 9
9 9 7 7 9 8 9 10 14 15 15 15 10 12 10 8 7 7 7 6 5 4 4 4 4 3 3 4 4 5 6 7 7 7 7 7 7 8 8 9 9 8 9 9
13 13 9 7 8 9 10 9 14 17 16 14 10 13 11 7 6 5 5 5 4 4 4 4 4 3 3 4 4 5 6 7 7 7 7 7 7 8 8 8 8 8 9 9
13 13 8 7 6 7 9 11 8 12 11 14 12 10 8 7 7 6 6 5 5 5 4 4 3 3 3 4 4 4 5 6 7 7 8 8 7 8 8 8 8 9 8 8
9 12 9 8 7 7 8 7 12 11 17 18 14 12 12 10 8 7 7 8 5 5 4 4 3 3 3 3 3 4 5 6 7 7 7 7 7 7 7 8 8 8 8 8
9 10 11 8 10 10 9 11 10 10 12 16 18 16 10 9 8 8 6 6 8 4 5 4 3 3 3 3 4 4 5 8 7 7 7 7 8 7 7 8 8 8 8 9
7 9 13 12 8 7 8 10 10 14 15 13 15 15 6 8 7 6 6 5 6 5 5 7 4 3 3 4 4 4 6 7 10 7 7 7 7 8 8 8 9 8 9 9
8 11 14 14 10 9 10 10 10 10 11 17 18 16 7 6 6 6 6 5 5 5 5 5 4 4 4 4 4 4 6 7 7 7 8 8 9 10 11 10 9 9 10 11
7 11 12 16 13 10 12 11 10 11 15 16 15 12 9 8 8 7 6 6 5 4 5 5 5 4 5 4 4 5 7 7 7 8 8 11 10 10 11 11 10 10 11 12
8 13 11 11 10 10 11 11 11 12 11 16 14 12 9 8 8 7 6 5 5 5 4 5 5 4 4 4 3 4 6 7 7 8 9 10 10 10 10 10 10 10 11 12
7 12 11 13 10 10 12 11 11 11 11 11 11 12 8 7 6 6 6 5 6 6 5 5 4 4 4 3 3 3 5 6 7 8 9 10 9 9 10 9 9 11 11 12
11 13 13 16 11 12 15 12 10 10 9 10 12 9 7 7 6 6 5 5 5 5 4 4 4 4 4 4 3 4 5 5 6 8 9 10 8 9 9 9 9 10 11 11
11 11 13 16 13 20 11 7 8 9 8 8 8 7 7 6 5 5 4 5 5 4 4 3 3 3 3 3 3 4 5 6 7 8 9 8 9 9 9 10 10 10 10 11
8 10 14 16 16 13 10 9 9 10 10 7 8 7 6 5 6 6 5 5 5 4 4 4 3 3 3 4 3 4 5 6 7 7 8 8 8 10 10 10 11 10 10 11
8 9 13 14 17 18 10 8 6 7 13 7 6 7 8 7 11 9 5 5 5 3 3 3 3 2 3 3 4 5 7 7 8 8 8 9 9 10 10 10 10 10 10 11
12 13 15 15 16 13 8 7 6 14 11 6 6 6 6 9 8 6 5 5 4 3 3 3 3 3 3 3 4 6 7 8 8 8 8 8 8 10 10 10 9 10 11 11
12 15 15 14 15 17 8 7 12 8 5 6 6 6 6 5 5 5 5 5 4 4 4 3 4 4 4 4 6 7 8 8 8 8 8 9 9 10 9 9 10 10 11 12
13 10 12 12 12 8 7 6 5 4 5 5 5 4 4 5 5 5 5 5 4 3 4 3 4 5 5 5 5 8 8 8 8 8 8 8 8 9 9 9 10 10 11 12
9 8 11 9 7 7 5 5 4 4 4 4 4 4 4 5 6 5 5 5 4 3 4 5 5 6 7 6 6 7 7 8 8 8 8 8 9 9 9 9 10 10 11 12
10 8 9 9 7 6 5 5 4 4 4 4 4 4 5 5 5 5 5 5 4 4 5 5 6 6 7 7 7 7 8 8 8 8 9 8 9 9 9 9 9 10 10 10
7 8 9 11 6 6 6 4 4 4 4 4 4 4 4 4 5 4 5 4 4 4 4 5 6 6 6 6 7 8 8 7 8 9 9 9 9 9 9 10 11 10 10 10

GFSCGP_con_lsi_183.txt.gz
Lid_Strength_Index
9 12 13 12 10 9 10 11 13 12 9 11 11 12 10 9 9 9 8 7 6 6 6 6 7 8 8 7 6 7 7 7 8 9 9 9 10 10 11 10 9 9 9 9
11 13 9 8 8 10 10 12 12 11 9 10 12 12 11 10 10 9 8 6 6 6 6 6 7 7 6 6 6 7 7 7 8 8 8 8 9 10 10 10 10 9 9 9
12 10 7 8 10 10 11 11 12 12 10 11 12 12 12 9 8 8 7 5 5 6 7 7 7 6 6 6 6 5 6 7 8 9 8 9 9 9 10 11 11 11 10 9
11 9 9 10 11 10 13 10 10 11 12 16 11 16 12 10 9 8 7 9 6 6 6 7 7 7 6 6 5 5 6 7 8 8 9 9 10 10 11 12 12 11 10 10
12 11 11 12 10 8 11 9 10 11 13 14 14 15 13 11 10 9 10 8 6 6 6 7 7 7 7 6 6 6 8 8 9 8 8 10 11 11 11 11 12 11 11 11
11 9 10 11 9 9 9 10 11 12 13 17 14 14 14 12 10 9 8 7 6 6 7 7 6 7 7 6 6 7 8 8 9 9 9 10 11 11 11 12 12 12 12 12
11 10 9 9 11 10 11 13 17 19 18 18 12 13 13 9 8 8 8 7 7 6 7 7 7 6 6 6 7 8 8 9 9 9 9 10 10 11 11 12 12 12 12 12
15 16 11 9 10 11 12 12 16 19 19 17 12 16 12 7 7 7 7 7 6 6 6 6 6 6 6 6 7 7 8 9 9 9 9 10 10 10 10 11 11 12 12 11
15 15 10 9 9 9 11 13 10 13 13 15 14 12 10 7 8 7 7 7 8 7 6 6 6 7 7 7 7 7 8 9 9 9 9 10 10 10 11 11 11 11 11 10
11 15 11 10 9 9 10 9 13 13 18 19 16 15 15 11 10 8 9 8 7 7 6 5 6 7 6 6 6 7 8 9 9 10 10 10 10 10 11 11 12 12 11 11
11 13 13 11 12 13 12 12 11 11 14 18 19 17 10 11 9 9 8 7 9 6 6 6 6 6 6 6 6 7 9 10 10 10 10 10 11 10 10 11 11 11 11 11
10 11 15 13 10 9 10 12 11 16 18 16 18 17 8 9 8 8 7 6 6 6 5 7 5 6 7 6 6 7 9 10 11 10 10 10 10 10 11 11 11 11 12 12
10 13 16 14 12 10 11 10 10 11 13 17 19 17 8 8 8 7 8 7 6 6 6 6 6 6 6 6 6 8 9 9 9 9 10 10 11 11 11 12 12 12 13 13
8 12 13 17 14 12 13 11 10 11 16 16 16 15 11 9 9 8 7 7 7 6 5 6 7 6 6 6 6 8 9 9 9 10 10 12 12 11 12 11 12 13 13 14
9 15 13 12 11 11 11 11 11 12 12 16 14 14 11 10 10 8 7 7 7 7 6 5 6 6 6 6 6 8 8 8 9 10 11 11 11 11 11 11 13 12 13 13
9 14 12 15 12 11 13 11 11 11 11 11 11 12 9 8 8 8 8 7 7 8 6 5 5 5 6 5 6 8 8 9 9 9 10 10 11 11 11 12 12 12 12 12
11 13 14 17 13 13 16 13 11 11 10 10 13 11 9 9 8 8 7 7 7 7 7 5 5 5 5 5 5 8 8 8 8 9 9 10 11 11 12 11 11 11 13 13
11 12 13 16 14 20 12 8 9 10 9 9 9 9 8 8 8 7 6 7 7 6 5 5 4 4 4 4 5 7 8 8 8 9 10 9 11 11 10 11 11 12 12 12
9 11 15 17 17 14 12 9 10 11 12 8 9 8 8 7 7 8 6 5 5 5 5 5 5 4 4 5 5 6 7 7 8 9 10 9 10 11 10 10 11 11 11 12
9 9 13 15 18 19 12 8 7 8 15 8 8 8 8 8 13 10 6 5 5 4 4 4 4 4 5 4 5 6 7 8 9 9 10 9 10 11 11 11 11 11 11 12
13 14 16 16 17 14 10 8 7 15 14 8 7 8 8 10 8 7 5 5 4 4 4 4 5 5 5 4 6 7 8 9 8 8 9 9 10 11 11 11 12 11 12 12
13 15 16 15 17 18 8 9 12 10 7 7 7 7 7 7 6 6 6 5 4 4 5 5 6 6 5 6 6 7 8 8 8 9 9 9 9 9 10 11 12 11 12 13
15 12 14 14 14 8 7 8 6 6 7 7 7 6 6 6 6 5 6 5 4 4 5 5 6 6 6 6 6 8 9 8 8 9 9 9 10 11 11 12 12 13 12 13
11 8 12 11 9 8 7 6 6 6 6 6 6 6 6 7 7 6 5 5 5 4 5 6 7 7 7 7 8 8 8 8 8 9 9 10 11 11 10 10 11 11 12 13
11 9 11 11 9 7 7 6 6 5 5 5 5 6 5 5 5 5 5 5 4 4 5 6 6 7 8 8 8 8 8 8 9 9 10 11 11 11 10 11 11 11 11 11
8 10 12 12 8 8 7 6 5 6 6 5 5 5 6 4 5 5 5 5 5 5 5 6 6 8 8 8 8 8 8 8 9 9 10 11 12 11 10 11 11 9 10 9